Flag for Greece Weather past 2 weeks in Nikaia, Greece

Now
50 °F

Light rain. Mostly cloudy.


Feels Like: 49 °F
Forecast: 49 / 62 °F
Wind: 3 mph from North

Location: Elefsis Airport

Current Time: Feb 27, 2015 at 7:14:32 PM

Latest Report: Feb 27, 2015 at 6:20 PM


Visibility: 4 mi

Pressure: 29.65 "Hg

Humidity: 94%

Dew point: 48 °F

Location of NikaiaLocation

Historic Weather in Nikaia — Graph

°F

Nikaia temperature yesterday

Maximum temperature yesterday: 61 °F (at 10:50 AM)
Minimum temperature yesterday: 41 °F (at 5:50 AM)
Average temperature yesterday: 50 °F

Past Weeks' High & Low Weather Summary

 TemperatureHumidityPressure
High64 °F (Feb 25, 2:50 PM)100% (Feb 23, 4:50 AM)30.48 "Hg (Feb 23, 4:50 AM)
Low30 °F (Feb 19, 5:20 AM)19% (Feb 20, 12:20 PM)29.65 "Hg (Feb 24, 3:50 PM)
Average47 °F66%30.06 "Hg
* Reported Feb 12 5:20 PM — Feb 27 5:50 PM, Nikaia, Weather by CustomWeather, © 2015

Note: Actual official high and low records may vary slightly from our data, if they occured in-between our weather recording intervals... More about our weather records

Advertising

Nikaia weather history for previous 24 hours

 ConditionsComfort  
Time TempWeatherWind HumidityBarometerVisibility
5:50 PM
Fri, Feb 27
50 °FMore clouds than sun.3 mph88%29.65 "HgN/A
5:20 PM52 °FMore clouds than sun.7 mph82%29.65 "HgN/A
4:50 PM50 °FLight rain. Mostly cloudy.7 mph88%29.65 "HgN/A
4:20 PM50 °FLight rain. Mostly cloudy.7 mph88%29.65 "HgN/A
3:50 PM52 °FLight rain. Mostly cloudy.3 mph88%29.68 "Hg6 mi
3:20 PM50 °FLight rain. Mostly cloudy.3 mph88%29.68 "Hg5 mi
2:50 PM50 °FRain. Broken clouds.12 mph94%29.71 "Hg2 mi
2:20 PM50 °FThunderstorms. Mostly cloudy.6 mph88%29.71 "Hg2 mi
1:50 PM52 °FThunderstorms. Mostly cloudy.18 mph77%29.68 "Hg2 mi
1:20 PM61 °FCloudy.14 mph68%29.68 "HgN/A
12:50 PM61 °FCloudy.14 mph63%29.71 "HgN/A
12:20 PM61 °FCloudy.14 mph63%29.74 "HgN/A
11:50 AM61 °FCloudy.14 mph63%29.74 "HgN/A
11:20 AM59 °FMostly cloudy.12 mph77%29.74 "HgN/A
10:50 AM59 °FMostly cloudy.12 mph72%29.74 "HgN/A
10:20 AM59 °FPartly sunny.12 mph68%29.77 "HgN/A
9:50 AM59 °FPartly sunny.12 mph68%29.77 "HgN/A
9:20 AM59 °FPartly sunny.9 mph68%29.80 "HgN/A
8:50 AM59 °FPartly sunny.9 mph68%29.80 "HgN/A
8:20 AM57 °FPartly sunny.9 mph72%29.80 "HgN/A
7:50 AM57 °FPartly sunny.8 mph72%29.80 "HgN/A
7:20 AM55 °FPartly sunny.7 mph77%29.83 "HgN/A
6:50 AM55 °FPassing clouds.No wind77%29.83 "HgN/A
6:20 AM55 °FPassing clouds.No wind77%29.86 "HgN/A
5:50 AM54 °FPartly cloudy.No wind82%29.89 "HgN/A
5:20 AM55 °FPartly cloudy.No wind77%29.92 "HgN/A
4:50 AM55 °FPartly cloudy.7 mph77%29.92 "HgN/A
4:20 AM54 °FPassing clouds.6 mph82%29.92 "HgN/A
3:50 AM54 °FPassing clouds.No wind77%29.92 "HgN/A
3:20 AM52 °FPassing clouds.7 mph82%29.95 "HgN/A
2:50 AM52 °FThunderstorms. Passing clouds.7 mph82%29.95 "Hg5 mi
2:20 AM52 °FPassing clouds.7 mph82%29.95 "Hg5 mi
1:50 AM52 °FThunderstorms. Passing clouds.7 mph82%29.95 "Hg4 mi
1:20 AM52 °FThunderstorms. Passing clouds.6 mph82%29.95 "Hg4 mi
12:50 AM52 °FThunderstorms. Passing clouds.14 mph77%29.95 "Hg4 mi
12:20 AM55 °FThunderstorms. Passing clouds.8 mph94%29.95 "Hg4 mi
11:50 PM
Thu, Feb 26
54 °FThunderstorms. Passing clouds.5 mph100%29.98 "Hg4 mi
10:50 PM52 °FPassing clouds.No wind94%29.98 "Hg4 mi
10:20 PM50 °FLight rain. Mostly cloudy.7 mph100%30.01 "Hg4 mi
9:50 PM50 °FHeavy rain. Overcast.No wind94%30.01 "Hg4 mi
9:20 PM50 °FThunderstorms. Partly cloudy.6 mph94%30.01 "Hg4 mi
8:50 PM52 °FThunderstorms. Mostly cloudy.5 mph94%30.01 "Hg4 mi
8:20 PM52 °FLight rain. Passing clouds.No wind94%30.01 "Hg4 mi
7:50 PM52 °FRain. Passing clouds.No wind88%30.01 "Hg4 mi
Weather by CustomWeather, © 2015

See weather overviewHow to use our weather pages